Location: Nairn
(57.5833°N, 3.8667°W)
Time: 18:17:23
(UTC+00:00)

Cosmos 1707 - Pass Details

Date: 07 August 2020
Orbit: 515 x 531 km, 82.5° (Epoch: 23 September)

Event Time Altitude Azimuth Distance (km) Brightness Sun altitude
Rises 01:09:11 0° 346° (NNW) 2,692 7.5 -15.4°
Reaches altitude 10° 01:11:21 10° 345° (NNW) 1,797 6.4 -15.4°
Maximum altitude 01:15:17 76° 260° (W) 556 2.7 -15.2°
Enters shadow 01:17:15 28° 179° (S) 1,016 3.6 -15.2°
